[[{"header":{"parameterUnit":"m.s-1","parameterCategory":2,"la1":30.2991,"la2":30.254,"lo1":-89.0895,"lo2":-89.0444,"dy":0.0017,"dx":0.0017,"nx":28,"ny":28,"refTime":"2025-04-27T03:00:00:Z","depth":"0","parameterNumber":2,"parameterNumberName":"U-component_of_CURRENTS"},"data":[0,0,0,0,0,0,0,0,0,0,0,0,0,0,0,0,0,0,0,0,0,0,0,0,0,0,0,0,0,0,0,0,0,0,0,0,0,0,0,0,0,0,0,0,0,0,0,0,0,0,0,0,0,0,0,0,0,0,0.2142,0.2142,0,0.2112,0.2111,0.2111,0.207,0.207,0.207,0.2069,0.2008,0.2007,0.2006,0,0,0,0,0,0,0,0,0,0,0,0,0,0.217,0.2169,0.2142,0.2142,0.2142,0.2112,0.2111,0.2111,0.207,0.207,0.2069,0.2069,0.2009,0.2007,0.2006,0,0,0,0,0,0,0,0,0,0,0,0,0,0.2148,0.2169,0.2142,0.212,0.2118,0.2112,0.2111,0.2111,0.2071,0.207,0.2069,0.2069,0.2009,0.2007,0.2006,0.2007,0,0,0.2,0.1999,0,0,0,0,0,0,0,0,0.2149,0.2147,0.2123,0.2122,0.2119,0.2097,0.2099,0.2075,0.2071,0.2086,0.2069,0.2068,0.2037,0.2033,0.2025,0.2004,0.2002,0.2,0.1999,0.1998,0.1997,0,0,0,0,0,0,0,0.2151,0.2148,0.2127,0.2123,0.2121,0.2114,0.211,0.2094,0.2063,0.2084,0.2082,0.2083,0.2035,0.2027,0.2024,0.2001,0.2,0.1998,0.1997,0.1996,0.2004,0.2005,0,0,0,0,0,0,0.216,0.2149,0.2128,0.2127,0.2136,0.2114,0.2109,0.2102,0.2064,0.2058,0.2084,0.2082,0.2031,0.2026,0.2021,0.2042,0.1998,0.1996,0.1995,0.2003,0.2004,0.2006,0,0,0,0,0,0,0.2161,0.2158,0.213,0.214,0.2136,0.2114,0.2107,0.2102,0.2096,0.2064,0.2057,0.2083,0.203,0.2024,0.2019,0.2038,0.1995,0.1994,0.2001,0.2003,0.2005,0.2069,0,0,0,0,0,0,0.2162,0.2158,0.2158,0.214,0.2136,0.2134,0.2108,0.2102,0.2099,0.2095,0.2061,0.2055,0.2029,0.2023,0.2018,0.2035,0.1992,0.1999,0.2002,0.2004,0.2065,0.2073,0.208,0,0,0,0,0,0.2162,0.2165,0.2158,0.2156,0.2135,0.2135,0.2132,0.2112,0.21,0.2103,0.2084,0.2056,0.2035,0.2022,0.2016,0.2033,0.1998,0.2001,0.2004,0.2062,0.2072,0.208,0,0,0,0,0,0,0.2176,0.216,0.2153,0.215,0.2148,0.2129,0.213,0.2119,0.2106,0.2102,0.2068,0.2061,0.2068,0.2044,0.2031,0.2045,0.2013,0.2015,0.206,0.2068,0.2075,0.2074,0.1991,0,0,0,0,0,0.2181,0.2176,0.2167,0.2166,0.2166,0.215,0.2148,0.2137,0.2125,0.2117,0.2095,0.2078,0.2076,0.2066,0.2057,0.2059,0.2045,0.2068,0.2076,0.2082,0.2078,0.2093,0.2101,0.2015,0.2015,0.2015,0,0,0.2185,0.2178,0.2175,0.2169,0.2163,0.2163,0.2146,0.2148,0.2148,0.2114,0.2107,0.2103,0.2084,0.2091,0.2092,0.2072,0.21,0.2085,0.2091,0.2083,0.2097,0.2105,0.2112,0.2017,0.2017,0.2016,0,0,0.2192,0.2188,0.2185,0.2186,0.2185,0.2179,0.2183,0.2171,0.2167,0.2168,0.2151,0.216,0.2139,0.2137,0.2132,0.2173,0.2142,0.2172,0.2199,0.2214,0.2221,0.2227,0.2222,0.2227,0.217,0.217,0.217,0,0.2199,0.2189,0.2187,0.2188,0.2188,0.2188,0.2188,0.219,0.2179,0.2183,0.2173,0.2175,0.2162,0.2179,0.2196,0.2188,0.2184,0.2167,0.2223,0.2228,0.2233,0.2227,0.2231,0.2173,0.2173,0.2173,0.2172,0,0.2199,0.2195,0.2198,0.2195,0.22,0.2204,0.2208,0.2218,0.2217,0.2217,0.2238,0.2232,0.223,0.224,0.2227,0.2262,0.2244,0.2235,0.22,0.2246,0.2236,0.224,0.2178,0.2177,0.2176,0.2175,0,0,0.2194,0.2196,0.2195,0.2191,0.2202,0.2202,0.2223,0.2237,0.2246,0.2259,0.227,0.2291,0.2293,0.2289,0.2286,0.2302,0.2339,0.2285,0.2285,0.2278,0.2362,0.2284,0.228,0.2344,0.2345,0.2346,0.2341,0,0.219,0.2187,0.2193,0.2193,0.2191,0.2208,0.2222,0.2241,0.2257,0.2272,0.2296,0.2304,0.231,0.2312,0.2337,0.2338,0.2352,0.234,0.232,0.2318,0.2242,0.2283,0.2138,0.2116,0.2344,0.2345,0.2345,0,0.2177,0.2178,0.2174,0.2182,0.2183,0.2189,0.2213,0.2228,0.2267,0.2281,0.2313,0.2322,0.2357,0.2349,0.2385,0.2378,0.2374,0.2376,0.2375,0.2279,0.2247,0.2107,0.2113,0.2017,0.235,0.235,0.235,0,0.2154,0.216,0.2154,0.2156,0.2171,0.2179,0.2194,0.2229,0.2243,0.2285,0.2299,0.2343,0.2353,0.2379,0.239,0.2389,0.2417,0.241,0.2336,0.233,0.2188,0.2167,0.2092,0.243,0.243,0.243,0.243,0,0.2135,0.2128,0.214,0.2135,0.2135,0.2157,0.2165,0.2194,0.2231,0.2246,0.2297,0.2312,0.2363,0.2385,0.2396,0.2375,0.2422,0.2342,0.2328,0.2206,0.2188,0.2081,0.2059,0.243,0.243,0.243,0.243,0,0.21,0.2108,0.21,0.2115,0.2119,0.2118,0.214,0.215,0.2195,0.2217,0.223,0.2294,0.2319,0.2355,0.2384,0.2363,0.2265,0.2338,0.2183,0.2149,0.1972,0.1959,0.1803,0.1762,0.2248,0.2246,0.2245,0,0.2079,0.2071,0.2077,0.2071,0.2074,0.2077,0.2081,0.2125,0.2137,0.2197,0.2204,0.2245,0.2255,0.2271,0.2236,0.2222,0.2181,0.2082,0.2051,0.1938,0.1915,0.1848,0.1822,0.1892,0.1888,0.1884,0.1881,0,0.2043,0.2046,0.2042,0.2027,0.2023,0.2013,0.2024,0.2028,0.2078,0.2095,0.2118,0.2132,0.2136,0.2046,0.2027,0.2014,0.1931,0.2006,0.1931,0.1662,0.154,0.15,0.1917,0.1849,0.1853,0.1855,0.1857,0.1858,0.2017,0.2003,0.1996,0.1973,0.1966,0.1939,0.1905,0.1922,0.1917,0.1911,0.1988,0.1946,0.1889,0.1828,0.18,0.1622,0.1692,0.1541,0.1546,0.1496,0.1413,0.1751,0.1643,0.1645,0.1647,0.1648,0.165,0,0.1973,0.1958,0.194,0.1901,0.186,0.1875,0.1853,0.1802,0.1757,0.1764,0.1755,0.1634,0.151,0.1457,0.1274,0.1168,0.113,0.1124,0.0999,0.1012,0.1332,0.1272,0.1027,0.1027,0.1027,0.1027,0.1027,0.1027,0.1951,0.1911,0.1891,0.18,0.1768,0.1677,0.1642,0.1586,0.1556,0.1437,0.134,0.1324,0.1227,0.1002,0.082,0.0807,0.074,0.064,0.0718,0.0933,0.0972,0.1009,0.0946,0.0637,0.0636,0.0313,0.031,0.0308]},{"header":{"parameterUnit":"m.s-1","parameterCategory":2,"la1":30.2991,"la2":30.254,"lo1":-89.0895,"lo2":-89.0444,"dy":0.0017,"dx":0.0017,"nx":28,"ny":28,"refTime":"2025-04-27T03:00:00:Z","depth":"0","parameterNumber":3,"parameterNumberName":"V-component_of_CURRENTS"},"data":[0,0,0,0,0,0,0,0,0,0,0,0,0,0,0,0,0,0,0,0,0,0,0,0,0,0,0,0,0,0,0,0,0,0,0,0,0,0,0,0,0,0,0,0,0,0,0,0,0,0,0,0,0,0,0,0,0,0,0.0384,0.0384,0,0.0399,0.04,0.04,0.0395,0.0395,0.0394,0.0394,0.0398,0.0398,0.0398,0,0,0,0,0,0,0,0,0,0,0,0,0,0.0336,0.0337,0.0384,0.0384,0.0384,0.0399,0.04,0.04,0.0395,0.0395,0.0394,0.0394,0.0398,0.0398,0.0398,0,0,0,0,0,0,0,0,0,0,0,0,0,0.0354,0.0337,0.0383,0.0384,0.0385,0.0399,0.04,0.04,0.0395,0.0395,0.0394,0.0394,0.0397,0.0398,0.0398,0.0409,0,0,0.04,0.04,0,0,0,0,0,0,0,0,0.0353,0.0355,0.0384,0.0384,0.0385,0.0396,0.0384,0.0402,0.0395,0.039,0.0394,0.0394,0.0397,0.0397,0.04,0.0409,0.0409,0.04,0.04,0.04,0.0401,0,0,0,0,0,0,0,0.0352,0.0355,0.0389,0.0384,0.0385,0.0379,0.0381,0.0387,0.0394,0.0391,0.039,0.0394,0.0397,0.0399,0.04,0.0409,0.04,0.04,0.0401,0.0401,0.0428,0.0429,0,0,0,0,0,0,0.0353,0.0354,0.0388,0.0389,0.0368,0.0381,0.0383,0.0392,0.0395,0.0395,0.0394,0.0393,0.0399,0.0399,0.04,0.0426,0.04,0.0401,0.0401,0.0428,0.0428,0.0429,0,0,0,0,0,0,0.0352,0.0356,0.0388,0.0372,0.0376,0.0382,0.0392,0.0392,0.0396,0.0398,0.0397,0.0398,0.0399,0.0399,0.0411,0.0426,0.0401,0.0402,0.0427,0.0428,0.0429,0.047,0,0,0,0,0,0,0.035,0.0356,0.0362,0.0373,0.0377,0.0402,0.0392,0.0393,0.0399,0.0399,0.0401,0.0401,0.0398,0.041,0.0411,0.0426,0.0402,0.0427,0.0428,0.0428,0.0468,0.0472,0.0475,0,0,0,0,0,0.0349,0.0363,0.0362,0.0366,0.0386,0.0403,0.0405,0.0407,0.04,0.0408,0.0408,0.0401,0.0416,0.0411,0.0412,0.0427,0.0426,0.0427,0.0428,0.0466,0.0471,0.0475,0,0,0,0,0,0,0.0345,0.0364,0.0364,0.0382,0.0393,0.0403,0.0411,0.041,0.0416,0.0415,0.041,0.041,0.0425,0.0419,0.0414,0.0436,0.0419,0.042,0.0447,0.0451,0.0455,0.0465,0.0402,0,0,0,0,0,0.0348,0.0364,0.0377,0.0392,0.0399,0.0404,0.041,0.0413,0.042,0.0422,0.0423,0.0423,0.043,0.0435,0.0438,0.0454,0.0441,0.0462,0.0466,0.0469,0.0477,0.0473,0.0477,0.0432,0.0432,0.0432,0,0,0.035,0.0363,0.0371,0.0392,0.04,0.042,0.0407,0.0422,0.0439,0.0422,0.0442,0.0437,0.0436,0.0453,0.0459,0.0451,0.0472,0.047,0.0473,0.048,0.0475,0.0479,0.0483,0.0433,0.0433,0.0433,0,0,0.0368,0.0375,0.0395,0.0409,0.0426,0.0432,0.0438,0.0449,0.0455,0.0473,0.0464,0.0469,0.0478,0.0483,0.0486,0.0511,0.049,0.0507,0.0539,0.0535,0.0538,0.0542,0.0521,0.0522,0.0511,0.0511,0.0511,0,0.0369,0.0399,0.0403,0.0427,0.0445,0.044,0.0468,0.0475,0.0487,0.0502,0.0485,0.0503,0.0495,0.0523,0.0528,0.0521,0.0507,0.0524,0.054,0.0543,0.0546,0.0523,0.0524,0.0513,0.0513,0.0513,0.0513,0,0.0405,0.0428,0.0442,0.0473,0.049,0.0513,0.0526,0.0539,0.0541,0.055,0.0572,0.0559,0.057,0.0565,0.0554,0.0574,0.0553,0.0544,0.0531,0.0553,0.0528,0.0528,0.0516,0.0516,0.0515,0.0515,0,0,0.0413,0.0459,0.0465,0.0491,0.0519,0.054,0.0568,0.0602,0.0631,0.0627,0.0659,0.0656,0.0643,0.0644,0.0626,0.062,0.0616,0.0591,0.0589,0.0573,0.0594,0.058,0.0578,0.0609,0.0609,0.0609,0.0565,0,0.0442,0.0498,0.0513,0.0567,0.0598,0.0609,0.0641,0.0668,0.0682,0.0708,0.0695,0.0712,0.0675,0.0676,0.0665,0.0634,0.0619,0.0628,0.0572,0.0571,0.0559,0.058,0.0619,0.0583,0.0564,0.0564,0.0564,0,0.0477,0.0512,0.0569,0.0627,0.0642,0.067,0.0727,0.0756,0.0787,0.0796,0.0804,0.0787,0.078,0.0738,0.0696,0.0702,0.0651,0.0618,0.0615,0.0592,0.0558,0.0559,0.0583,0.058,0.0564,0.0564,0.0564,0,0.0494,0.0555,0.0604,0.0624,0.0682,0.0711,0.0743,0.0786,0.0823,0.0848,0.087,0.0855,0.0846,0.0792,0.0715,0.0706,0.0659,0.0638,0.0576,0.0574,0.0591,0.059,0.0612,0.0604,0.0604,0.0604,0.0604,0,0.0526,0.0566,0.0616,0.0646,0.071,0.074,0.0808,0.0836,0.0881,0.0937,0.0913,0.0938,0.0859,0.082,0.0741,0.0662,0.0677,0.0588,0.0569,0.0605,0.0605,0.059,0.0575,0.0602,0.0603,0.0603,0.0603,0,0.0541,0.0572,0.0634,0.0697,0.0721,0.0768,0.0846,0.0897,0.0932,0.0998,0.1005,0.1,0.0956,0.0868,0.0778,0.0701,0.0618,0.0584,0.0622,0.0608,0.055,0.0536,0.0521,0.0519,0.0516,0.0515,0.0515,0,0.0556,0.0589,0.0666,0.0705,0.0736,0.0806,0.086,0.0915,0.0974,0.1042,0.1077,0.1052,0.1054,0.0916,0.0785,0.0653,0.0615,0.0579,0.0571,0.0563,0.0532,0.0526,0.0526,0.0602,0.0602,0.0602,0.0603,0,0.0583,0.0607,0.0658,0.0734,0.0795,0.0869,0.0949,0.1002,0.1077,0.1135,0.1196,0.12,0.1089,0.099,0.0806,0.0706,0.0601,0.0579,0.0574,0.0609,0.0602,0.0586,0.0599,0.0605,0.0605,0.0605,0.0605,0.0605,0.06,0.0635,0.0696,0.077,0.0839,0.0925,0.099,0.1079,0.1174,0.127,0.1276,0.1302,0.1175,0.0946,0.0822,0.0638,0.0619,0.0582,0.0564,0.0558,0.0571,0.0579,0.0562,0.0561,0.0561,0.0561,0.056,0,0.0617,0.0659,0.0728,0.0816,0.0887,0.0924,0.1044,0.1114,0.1227,0.1317,0.1372,0.1335,0.1198,0.1016,0.0782,0.0665,0.0622,0.0591,0.0612,0.0609,0.0627,0.0648,0.0646,0.0646,0.0646,0.0646,0.0646,0.0646,0.0628,0.0685,0.0719,0.0832,0.0897,0.0991,0.1057,0.1169,0.1256,0.135,0.1375,0.1388,0.1274,0.0966,0.0761,0.0692,0.0643,0.0604,0.0565,0.0601,0.06,0.0599,0.0617,0.0609,0.0609,0.0587,0.0587,0.0587]}],[{"header":{"parameterUnit":"m.s-1","parameterCategory":2,"la1":30.2991,"la2":30.254,"lo1":-89.0895,"lo2":-89.0444,"dy":0.0017,"dx":0.0017,"nx":28,"ny":28,"refTime":"2025-04-27T03:00:00:Z","depth":"2","parameterNumber":2,"parameterNumberName":"U-component_of_CURRENTS"},"data":[0,0,0,0,0,0,0,0,0,0,0,0,0,0,0,0,0,0,0,0,0,0,0,0,0,0,0,0,0,0,0,0,0,0,0,0,0,0,0,0,0,0,0,0,0,0,0,0,0,0,0,0,0,0,0,0,0,0,0.18,0.18,0,0.1788,0.1788,0.1788,0.1774,0.1774,0.1774,0.1774,0.176,0.1759,0.1759,0,0,0,0,0,0,0,0,0,0,0,0,0,0.1822,0.1821,0.18,0.18,0.18,0.1788,0.1788,0.1788,0.1774,0.1774,0.1774,0.1774,0.176,0.1759,0.1759,0,0,0,0,0,0,0,0,0,0,0,0,0,0.181,0.1821,0.18,0.1793,0.1793,0.1788,0.1788,0.1788,0.1774,0.1774,0.1774,0.1774,0.176,0.1759,0.1759,0.1758,0,0,0.1757,0.1757,0,0,0,0,0,0,0,0,0.1811,0.1809,0.1794,0.1794,0.1793,0.1784,0.1791,0.1778,0.1774,0.1779,0.1774,0.1774,0.1769,0.1768,0.1763,0.1757,0.1756,0.1757,0.1757,0.1757,0.1757,0,0,0,0,0,0,0,0.1811,0.1809,0.1794,0.1794,0.1794,0.1794,0.1792,0.1788,0.1773,0.1779,0.1778,0.178,0.1768,0.1764,0.1763,0.1756,0.1757,0.1757,0.1757,0.1757,0.1788,0.1789,0,0,0,0,0,0,0.1816,0.181,0.1794,0.1794,0.1804,0.1794,0.1792,0.1786,0.1773,0.1772,0.178,0.1779,0.1764,0.1763,0.1762,0.1794,0.1757,0.1756,0.1756,0.1787,0.1788,0.1789,0,0,0,0,0,0,0.1816,0.1814,0.1795,0.1803,0.1801,0.1794,0.1787,0.1785,0.1789,0.1774,0.1772,0.1786,0.1764,0.1763,0.1772,0.1792,0.1756,0.1756,0.1785,0.1787,0.1789,0.1836,0,0,0,0,0,0,0.1817,0.1814,0.1816,0.1803,0.1801,0.1801,0.1787,0.1785,0.179,0.179,0.1779,0.1777,0.1764,0.1772,0.1771,0.1791,0.1755,0.1784,0.1786,0.1788,0.1833,0.1839,0.1845,0,0,0,0,0,0.1817,0.1818,0.1815,0.1814,0.1801,0.1802,0.1801,0.1794,0.1791,0.1797,0.1793,0.1778,0.1785,0.1773,0.1771,0.1791,0.1783,0.1786,0.1788,0.1831,0.1838,0.1845,0,0,0,0,0,0,0.1828,0.1816,0.1813,0.181,0.1812,0.18,0.1805,0.1802,0.1802,0.1804,0.1789,0.1787,0.1805,0.1792,0.1779,0.1808,0.1783,0.1786,0.1816,0.1823,0.1829,0.1829,0.1755,0,0,0,0,0,0.1832,0.1828,0.1822,0.1822,0.1823,0.1817,0.1818,0.1816,0.1813,0.1813,0.1808,0.1806,0.1813,0.1813,0.1814,0.1825,0.1818,0.1839,0.1845,0.1849,0.185,0.1869,0.1876,0.1798,0.1798,0.1798,0,0,0.1835,0.183,0.1828,0.1824,0.1823,0.1826,0.1817,0.1824,0.1829,0.1812,0.1822,0.1827,0.1822,0.1838,0.1845,0.183,0.1868,0.1853,0.1857,0.1854,0.1872,0.188,0.1887,0.1799,0.1799,0.1799,0,0,0.1839,0.1838,0.1836,0.1839,0.1843,0.1842,0.1847,0.1845,0.185,0.1861,0.1857,0.1874,0.1874,0.1879,0.188,0.1918,0.19,0.1921,0.1946,0.1965,0.1972,0.1977,0.1975,0.198,0.1921,0.1921,0.1921,0,0.1847,0.1838,0.1839,0.1841,0.1845,0.185,0.1854,0.1861,0.1864,0.1875,0.1872,0.1897,0.1894,0.1919,0.1934,0.1931,0.1931,0.1919,0.1972,0.1978,0.1983,0.1979,0.1983,0.1923,0.1923,0.1923,0.1923,0,0.1845,0.1845,0.1848,0.1849,0.1857,0.1864,0.1874,0.1889,0.19,0.1907,0.194,0.1945,0.1959,0.1968,0.1961,0.2,0.1986,0.198,0.1954,0.1993,0.1986,0.1991,0.1927,0.1926,0.1925,0.1925,0,0,0.1839,0.1844,0.1845,0.1846,0.1862,0.1865,0.1891,0.1911,0.1928,0.195,0.1973,0.2002,0.2013,0.2016,0.2018,0.2036,0.2073,0.2026,0.2026,0.2021,0.2104,0.2031,0.2028,0.2081,0.2082,0.2083,0.2084,0,0.1837,0.1837,0.1844,0.1852,0.1853,0.1875,0.1895,0.1921,0.1945,0.1972,0.2,0.2022,0.2028,0.2039,0.2064,0.2073,0.2088,0.2072,0.2068,0.2068,0.1996,0.2031,0.1843,0.1823,0.2088,0.2088,0.2089,0,0.1825,0.1828,0.1831,0.1847,0.1851,0.1864,0.19,0.192,0.1968,0.199,0.2031,0.2047,0.2087,0.208,0.2122,0.2114,0.2115,0.2117,0.2117,0.2033,0.2002,0.1828,0.1821,0.2096,0.2095,0.2094,0.2094,0,0.1805,0.1817,0.1818,0.1823,0.1846,0.1862,0.1883,0.1928,0.195,0.2004,0.2027,0.2074,0.2098,0.2121,0.2137,0.2133,0.2169,0.216,0.2092,0.2086,0.1916,0.1892,0.2185,0.2185,0.2185,0.2185,0.2185,0,0.1788,0.1788,0.1809,0.1808,0.1821,0.1848,0.1873,0.1907,0.1955,0.1981,0.2035,0.2058,0.2113,0.2138,0.2146,0.2131,0.2179,0.2099,0.2086,0.1926,0.1905,0.2132,0.2126,0.2185,0.2185,0.2185,0.2185,0,0.1757,0.1769,0.177,0.1797,0.1807,0.1817,0.1859,0.1877,0.1934,0.197,0.1987,0.2056,0.2087,0.2122,0.2153,0.2131,0.2127,0.2107,0.1906,0.187,0.2026,0.2023,0.2027,0.2025,0.2023,0.2021,0.2019,0,0.1737,0.1734,0.1755,0.1756,0.1768,0.1789,0.1802,0.1859,0.1879,0.1958,0.1968,0.2021,0.2029,0.2049,0.2011,0.1993,0.2078,0.1817,0.1775,0.2025,0.2013,0.2012,0.2012,0.1566,0.1561,0.1557,0.1554,0,0.1703,0.1713,0.1716,0.1717,0.1727,0.1731,0.1758,0.1768,0.1833,0.1859,0.1888,0.1902,0.1911,0.1798,0.1783,0.1757,0.1805,0.1731,0.2047,0.1639,0.1591,0.1579,0.1593,0.1517,0.1521,0.1523,0.1525,0.1527,0.1681,0.1671,0.1675,0.1667,0.1676,0.1661,0.164,0.1666,0.1673,0.168,0.1752,0.1701,0.1695,0.1559,0.1494,0.1439,0.1578,0.1505,0.1517,0.1534,0.1484,0.1436,0.1322,0.1324,0.1327,0.1328,0.133,0,0.1638,0.1631,0.1623,0.1602,0.1576,0.1604,0.1595,0.1552,0.1518,0.1527,0.1521,0.1359,0.1251,0.1253,0.1087,0.1071,0.1064,0.1041,0.1012,0.1049,0.1081,0.1008,0.072,0.0718,0.0717,0.0715,0,0,0.1618,0.1585,0.1568,0.1501,0.149,0.1424,0.1399,0.1349,0.132,0.1242,0.1178,0.1226,0.1221,0.097,0.0917,0.0786,0.0923,0.0754,0.1241,0.1245,0.1277,0.1343,0.1271,0,0,0,0,0]},{"header":{"parameterUnit":"m.s-1","parameterCategory":2,"la1":30.2991,"la2":30.254,"lo1":-89.0895,"lo2":-89.0444,"dy":0.0017,"dx":0.0017,"nx":28,"ny":28,"refTime":"2025-04-27T03:00:00:Z","depth":"2","parameterNumber":3,"parameterNumberName":"V-component_of_CURRENTS"},"data":[0,0,0,0,0,0,0,0,0,0,0,0,0,0,0,0,0,0,0,0,0,0,0,0,0,0,0,0,0,0,0,0,0,0,0,0,0,0,0,0,0,0,0,0,0,0,0,0,0,0,0,0,0,0,0,0,0,0,0.0243,0.0243,0,0.0259,0.026,0.026,0.0264,0.0264,0.0264,0.0264,0.0277,0.0278,0.0278,0,0,0,0,0,0,0,0,0,0,0,0,0,0.0202,0.0203,0.0243,0.0243,0.0244,0.0259,0.026,0.026,0.0264,0.0264,0.0264,0.0264,0.0277,0.0278,0.0278,0,0,0,0,0,0,0,0,0,0,0,0,0,0.0219,0.0203,0.0243,0.0248,0.0249,0.0259,0.026,0.026,0.0264,0.0264,0.0264,0.0264,0.0277,0.0278,0.0278,0.0283,0,0,0.028,0.028,0,0,0,0,0,0,0,0,0.0218,0.022,0.0247,0.0248,0.0249,0.026,0.025,0.0268,0.0264,0.0258,0.0264,0.0264,0.0272,0.0273,0.0275,0.0284,0.0284,0.028,0.028,0.0281,0.0281,0,0,0,0,0,0,0,0.0217,0.022,0.0249,0.0247,0.0248,0.0245,0.0247,0.0253,0.0264,0.0258,0.0259,0.0261,0.0272,0.0275,0.0276,0.0285,0.028,0.0281,0.0281,0.0281,0.0301,0.0301,0,0,0,0,0,0,0.0217,0.0219,0.0249,0.025,0.0233,0.0246,0.0248,0.0256,0.0264,0.0266,0.0262,0.0262,0.0274,0.0275,0.0276,0.0296,0.0281,0.0281,0.0282,0.0301,0.0301,0.0301,0,0,0,0,0,0,0.0216,0.022,0.0248,0.0234,0.0238,0.0247,0.0255,0.0256,0.0261,0.0267,0.0268,0.0265,0.0274,0.0275,0.0286,0.0296,0.0281,0.0282,0.03,0.0301,0.0301,0.0327,0,0,0,0,0,0,0.0215,0.0219,0.0224,0.0235,0.0239,0.0258,0.0255,0.0257,0.0263,0.0263,0.027,0.0271,0.0274,0.0285,0.0286,0.0296,0.0282,0.03,0.03,0.0301,0.0326,0.0328,0.033,0,0,0,0,0,0.0213,0.0223,0.0224,0.0228,0.0246,0.0259,0.0261,0.0266,0.0263,0.0268,0.0273,0.0271,0.0287,0.0286,0.0287,0.0298,0.03,0.03,0.0301,0.0325,0.0327,0.033,0,0,0,0,0,0,0.0207,0.0225,0.0226,0.0241,0.025,0.026,0.0266,0.0267,0.0274,0.0275,0.0276,0.0278,0.029,0.0288,0.0286,0.0303,0.0292,0.0293,0.031,0.0312,0.0314,0.0324,0.0283,0,0,0,0,0,0.0208,0.0221,0.0233,0.0245,0.025,0.0257,0.0262,0.0266,0.0274,0.0277,0.0282,0.0286,0.0292,0.0298,0.0302,0.0314,0.0304,0.032,0.0322,0.0323,0.0331,0.0323,0.0326,0.0302,0.0302,0.0302,0,0,0.0208,0.022,0.0227,0.0244,0.0252,0.0268,0.026,0.0272,0.0286,0.0278,0.0297,0.0294,0.0296,0.031,0.0315,0.0311,0.0323,0.0324,0.0326,0.0333,0.0324,0.0326,0.0329,0.0302,0.0302,0.0302,0,0,0.0219,0.0226,0.0242,0.0253,0.0268,0.0275,0.0279,0.029,0.0296,0.0312,0.0308,0.0312,0.0323,0.0327,0.033,0.0345,0.0333,0.0343,0.0366,0.0358,0.036,0.0361,0.0345,0.0345,0.0346,0.0346,0.0346,0,0.0217,0.0243,0.0247,0.0267,0.0282,0.028,0.0302,0.0308,0.0321,0.0333,0.0322,0.0337,0.0333,0.0353,0.0356,0.0351,0.0341,0.0358,0.0361,0.0362,0.0364,0.0346,0.0346,0.0348,0.0347,0.0347,0.0347,0,0.0244,0.0263,0.0274,0.0301,0.0315,0.0333,0.0345,0.0356,0.0359,0.0368,0.0384,0.0375,0.0386,0.038,0.0373,0.0384,0.0371,0.0363,0.0356,0.0368,0.0348,0.0347,0.0349,0.0349,0.0349,0.0348,0,0,0.0247,0.0286,0.0291,0.0314,0.0337,0.0355,0.0377,0.0405,0.0429,0.0425,0.0451,0.0446,0.0437,0.0438,0.0425,0.0415,0.0406,0.0395,0.0393,0.0381,0.0382,0.0376,0.0375,0.0399,0.0399,0.0399,0.0362,0,0.0269,0.0314,0.0328,0.0372,0.0399,0.0409,0.0435,0.0456,0.0469,0.0491,0.0476,0.0491,0.0461,0.0463,0.0449,0.0423,0.0406,0.0416,0.0371,0.0369,0.0366,0.0375,0.0385,0.0354,0.0361,0.0361,0.0361,0,0.0295,0.0324,0.0372,0.0421,0.0434,0.0458,0.0507,0.0531,0.0555,0.0563,0.0568,0.0554,0.0544,0.0508,0.0468,0.0476,0.0431,0.0401,0.0399,0.0387,0.0363,0.0345,0.0352,0.0359,0.0359,0.0359,0.0359,0,0.0307,0.0358,0.04,0.0417,0.0467,0.0492,0.052,0.0555,0.0589,0.0608,0.0629,0.0609,0.0604,0.0551,0.0485,0.0477,0.0432,0.0413,0.0363,0.0361,0.0359,0.0357,0.0376,0.0376,0.0376,0.0376,0.0376,0,0.0332,0.0366,0.0411,0.0435,0.0492,0.0517,0.0578,0.0601,0.0641,0.0692,0.0666,0.0688,0.0615,0.0579,0.0506,0.0438,0.0447,0.0371,0.0356,0.0367,0.0366,0.0364,0.0363,0.0375,0.0375,0.0376,0.0376,0,0.0343,0.037,0.0422,0.0478,0.0501,0.0542,0.0616,0.0661,0.0692,0.0753,0.0759,0.0751,0.0711,0.0629,0.0545,0.0475,0.0402,0.0369,0.0383,0.037,0.0327,0.0328,0.0314,0.0314,0.0313,0.0313,0.0313,0,0.0353,0.0381,0.0451,0.0488,0.0516,0.058,0.063,0.0681,0.0735,0.0795,0.0827,0.0805,0.0801,0.0676,0.0556,0.0434,0.0406,0.0348,0.0335,0.0337,0.0323,0.0324,0.0326,0.0333,0.0333,0.0333,0.0333,0,0.0374,0.0396,0.0441,0.0513,0.0571,0.0641,0.0715,0.0764,0.0832,0.0882,0.0934,0.0931,0.0831,0.0722,0.0558,0.0467,0.037,0.0343,0.0349,0.0352,0.0353,0.034,0.0341,0.0333,0.0333,0.0333,0.0333,0.0333,0.0388,0.0419,0.0476,0.0545,0.0612,0.0694,0.0753,0.0834,0.0918,0.0994,0.0997,0.0991,0.0876,0.0669,0.0533,0.0378,0.0386,0.0313,0.0314,0.0314,0.0328,0.0329,0.0306,0.0306,0.0306,0.0305,0.0305,0,0.0404,0.0443,0.0505,0.0588,0.0657,0.0696,0.0806,0.0863,0.096,0.1021,0.106,0.0932,0.0827,0.0679,0.0468,0.0345,0.0327,0.0283,0.0295,0.0297,0.0298,0.0311,0.0284,0.0284,0.0283,0.0283,0,0,0.0415,0.0468,0.0498,0.0605,0.0668,0.0759,0.0821,0.0909,0.097,0.1018,0.1015,0.1019,0.086,0.0697,0.0539,0.0415,0.0375,0.0376,0.0407,0.0444,0.0446,0.0331,0.0355,0,0,0,0,0]}],[{"header":{"parameterUnit":"m.s-1","parameterCategory":2,"la1":30.2991,"la2":30.254,"lo1":-89.0895,"lo2":-89.0444,"dy":0.0017,"dx":0.0017,"nx":28,"ny":28,"refTime":"2025-04-27T03:00:00:Z","depth":"4","parameterNumber":2,"parameterNumberName":"U-component_of_CURRENTS"},"data":[0,0,0,0,0,0,0,0,0,0,0,0,0,0,0,0,0,0,0,0,0,0,0,0,0,0,0,0,0,0,0,0,0,0,0,0,0,0,0,0,0,0,0,0,0,0,0,0,0,0,0,0,0,0,0,0,0,0,0.1067,0.1068,0,0.1089,0.1089,0.1089,0.112,0.112,0.1121,0.1121,0.1175,0.1176,0.1177,0,0,0,0,0,0,0,0,0,0,0,0,0,0.1061,0.106,0.1067,0.1068,0.1068,0.1089,0.1089,0.109,0.1119,0.112,0.1121,0.1122,0.1175,0.1176,0.1177,0,0,0,0,0,0,0,0,0,0,0,0,0,0.107,0.106,0.1067,0.1086,0.1088,0.1089,0.1089,0.109,0.1119,0.112,0.1121,0.1122,0.1174,0.1176,0.1177,0.1167,0,0,0.1181,0.1181,0,0,0,0,0,0,0,0,0.1069,0.107,0.1083,0.1085,0.1087,0.1103,0.1107,0.1117,0.1119,0.1106,0.1121,0.1122,0.1154,0.1157,0.1157,0.117,0.1172,0.1181,0.1182,0.1182,0.1183,0,0,0,0,0,0,0,0.1069,0.1069,0.1075,0.1083,0.1086,0.1097,0.1099,0.1109,0.1125,0.1108,0.111,0.1114,0.1155,0.1156,0.1159,0.1173,0.1181,0.1182,0.1183,0.1183,0.1257,0.1258,0,0,0,0,0,0,0.1067,0.1069,0.1074,0.1076,0.1082,0.1096,0.1099,0.1096,0.1124,0.1129,0.1113,0.1115,0.1153,0.1157,0.1161,0.1218,0.1182,0.1184,0.1184,0.1255,0.1257,0.1258,0,0,0,0,0,0,0.1066,0.1066,0.1073,0.1074,0.1076,0.1095,0.1093,0.1096,0.1122,0.1128,0.1134,0.1138,0.1154,0.1159,0.1191,0.1218,0.1184,0.1185,0.1254,0.1256,0.1257,0.129,0,0,0,0,0,0,0.1066,0.1066,0.1077,0.1074,0.1076,0.109,0.1092,0.1096,0.1122,0.1126,0.1151,0.1155,0.1155,0.1189,0.1192,0.1219,0.1186,0.1253,0.1255,0.1257,0.1287,0.1293,0.1297,0,0,0,0,0,0.1065,0.107,0.1077,0.1078,0.1085,0.109,0.1093,0.1109,0.1123,0.1135,0.1155,0.1156,0.1206,0.1191,0.1194,0.1223,0.1252,0.1254,0.1257,0.1285,0.1292,0.1297,0,0,0,0,0,0,0.1075,0.1074,0.1081,0.1087,0.1097,0.1096,0.1113,0.1122,0.1146,0.116,0.1166,0.1171,0.1211,0.1212,0.1195,0.1251,0.1231,0.1234,0.1251,0.1257,0.1262,0.1263,0.1187,0,0,0,0,0,0.108,0.1086,0.1087,0.1096,0.1103,0.1113,0.1123,0.1134,0.1148,0.1161,0.1178,0.12,0.122,0.1235,0.125,0.1277,0.1277,0.1299,0.1304,0.1308,0.1312,0.1338,0.1346,0.1267,0.1267,0.1267,0,0,0.1087,0.1089,0.1093,0.11,0.111,0.1119,0.1122,0.1143,0.1159,0.1162,0.1201,0.1219,0.1231,0.1263,0.1281,0.127,0.1329,0.1311,0.1314,0.1316,0.1342,0.1349,0.1356,0.1268,0.1268,0.1268,0,0,0.1095,0.1106,0.1111,0.112,0.1138,0.1142,0.1154,0.1169,0.1188,0.1218,0.123,0.1264,0.1292,0.1306,0.1316,0.1356,0.1354,0.1369,0.1394,0.1419,0.1426,0.1432,0.1433,0.1439,0.137,0.137,0.137,0,0.1108,0.1108,0.1116,0.1123,0.1136,0.1155,0.1166,0.1183,0.1211,0.1232,0.1239,0.1298,0.1311,0.1348,0.1365,0.1368,0.1375,0.1369,0.1425,0.1431,0.1436,0.1437,0.1443,0.1372,0.1372,0.1372,0.1372,0,0.1107,0.112,0.1127,0.114,0.1156,0.1171,0.1191,0.1221,0.125,0.1268,0.1324,0.1342,0.1379,0.1391,0.1391,0.1441,0.1431,0.1428,0.1408,0.1446,0.1444,0.145,0.1375,0.1374,0.1374,0.1373,0,0,0.1102,0.1122,0.1128,0.1139,0.1168,0.1177,0.1215,0.1248,0.1281,0.132,0.1362,0.1404,0.1429,0.1441,0.1453,0.1475,0.1517,0.1473,0.1473,0.147,0.1564,0.1445,0.144,0.1529,0.153,0.1531,0.1544,0,0.1104,0.1116,0.1129,0.1154,0.1162,0.1197,0.1227,0.1267,0.1307,0.1353,0.1392,0.1436,0.1443,0.1471,0.1497,0.1517,0.1535,0.1513,0.1531,0.1532,0.1418,0.1443,0.1536,0.1548,0.1549,0.155,0.155,0,0.1092,0.1104,0.1125,0.1159,0.1168,0.1194,0.1253,0.1283,0.1351,0.1386,0.1443,0.1473,0.1526,0.152,0.1574,0.1564,0.157,0.1575,0.1576,0.1458,0.1423,0.1505,0.156,0.1559,0.1559,0.1558,0.1557,0,0.1069,0.11,0.1118,0.1129,0.1172,0.1204,0.1238,0.1303,0.1338,0.1417,0.1454,0.1515,0.1557,0.1583,0.1604,0.1599,0.1646,0.1635,0.153,0.1521,0.161,0.1604,0.1667,0.1667,0.1667,0.1667,0.1667,0,0.1047,0.1065,0.1115,0.1123,0.1159,0.1199,0.1251,0.1297,0.1367,0.1407,0.1477,0.151,0.158,0.1612,0.1618,0.1587,0.1661,0.1534,0.1519,0.1622,0.1617,0.1613,0.1607,0.1667,0.1667,0.1667,0.1667,0,0.101,0.1042,0.1066,0.1123,0.1146,0.1176,0.1252,0.1283,0.1362,0.1418,0.1446,0.1527,0.1562,0.1602,0.164,0.1592,0.1578,0.1548,0.1648,0.164,0.1431,0.1426,0.1422,0.1418,0.1415,0.1412,0.141,0,0.0986,0.0996,0.1061,0.108,0.1111,0.1164,0.1195,0.1275,0.1305,0.1409,0.1423,0.1492,0.1532,0.1484,0.1538,0.1525,0.1509,0.1485,0.146,0.142,0.1408,0.1408,0.1408,0.1404,0.1403,0.1403,0.1402,0,0.0943,0.098,0.1001,0.104,0.1079,0.1107,0.116,0.1174,0.126,0.1347,0.1357,0.1365,0.1396,0.1408,0.141,0.1402,0.149,0.1449,0.1456,0.1432,0.1399,0.1389,0.1393,0.139,0.1392,0.1393,0.1393,0,0.092,0.0924,0.096,0.0985,0.1029,0.1031,0.1067,0.109,0.1127,0.1238,0.1238,0.1307,0.1382,0.1344,0.1348,0.1327,0.1302,0.125,0.1267,0.128,0.1227,0.1164,0.1069,0,0,0,0,0,0.0888,0.0879,0.0898,0.0912,0.0951,0.0974,0.1031,0.1068,0.1155,0.1125,0.1176,0.1192,0.1189,0.1224,0.1172,0.1284,0.1311,0.1217,0.1261,0.1324,0.1338,0.1288,0,0,0,0,0,0,0.0864,0.0879,0.0871,0.0847,0.0846,0.0872,0.0905,0.0962,0.0946,0.1041,0.1045,0.1113,0.113,0.1208,0.115,0.1159,0.1157,0.1262,0.1258,0.1317,0.1329,0.134,0.1293,0,0,0,0,0]},{"header":{"parameterUnit":"m.s-1","parameterCategory":2,"la1":30.2991,"la2":30.254,"lo1":-89.0895,"lo2":-89.0444,"dy":0.0017,"dx":0.0017,"nx":28,"ny":28,"refTime":"2025-04-27T03:00:00:Z","depth":"4","parameterNumber":3,"parameterNumberName":"V-component_of_CURRENTS"},"data":[0,0,0,0,0,0,0,0,0,0,0,0,0,0,0,0,0,0,0,0,0,0,0,0,0,0,0,0,0,0,0,0,0,0,0,0,0,0,0,0,0,0,0,0,0,0,0,0,0,0,0,0,0,0,0,0,0,0,0.0186,0.0186,0,0.0201,0.0202,0.0202,0.0215,0.0215,0.0215,0.0215,0.0237,0.0237,0.0237,0,0,0,0,0,0,0,0,0,0,0,0,0,0.0155,0.0155,0.0186,0.0186,0.0186,0.0201,0.0202,0.0202,0.0215,0.0215,0.0215,0.0215,0.0236,0.0237,0.0237,0,0,0,0,0,0,0,0,0,0,0,0,0,0.0169,0.0155,0.0186,0.0195,0.0196,0.0201,0.0202,0.0202,0.0215,0.0215,0.0215,0.0215,0.0236,0.0237,0.0237,0.0237,0,0,0.0239,0.024,0,0,0,0,0,0,0,0,0.0168,0.017,0.0193,0.0194,0.0195,0.0206,0.0198,0.0214,0.0215,0.0207,0.0215,0.0216,0.0227,0.0228,0.0231,0.0238,0.0239,0.0239,0.024,0.024,0.024,0,0,0,0,0,0,0,0.0167,0.0169,0.0192,0.0193,0.0194,0.0193,0.0196,0.0201,0.0216,0.0208,0.0209,0.0211,0.0227,0.023,0.0231,0.0239,0.0239,0.024,0.024,0.0241,0.0254,0.0254,0,0,0,0,0,0,0.0166,0.0169,0.0191,0.0192,0.0182,0.0194,0.0197,0.0202,0.0216,0.0218,0.0211,0.0211,0.0229,0.023,0.0232,0.0248,0.024,0.0241,0.0241,0.0254,0.0254,0.0254,0,0,0,0,0,0,0.0165,0.0168,0.0191,0.0181,0.0183,0.0194,0.0201,0.0203,0.0209,0.0217,0.022,0.0216,0.0229,0.0231,0.0242,0.0248,0.0241,0.0242,0.0254,0.0254,0.0254,0.0269,0,0,0,0,0,0,0.0164,0.0168,0.0172,0.0181,0.0184,0.0198,0.0201,0.0203,0.021,0.0211,0.0223,0.0225,0.0229,0.0241,0.0242,0.0249,0.0242,0.0254,0.0254,0.0254,0.0268,0.0269,0.027,0,0,0,0,0,0.0163,0.017,0.0173,0.0175,0.019,0.0199,0.02,0.0208,0.021,0.0215,0.0222,0.0225,0.0241,0.0241,0.0243,0.025,0.0254,0.0254,0.0254,0.0268,0.0269,0.027,0,0,0,0,0,0,0.0158,0.0172,0.0175,0.0186,0.0193,0.0201,0.0206,0.021,0.0219,0.0221,0.0227,0.023,0.024,0.0241,0.024,0.0252,0.0247,0.0247,0.0257,0.0258,0.0259,0.0264,0.0243,0,0,0,0,0,0.0158,0.0169,0.0178,0.0187,0.0191,0.0198,0.0203,0.0208,0.0216,0.0221,0.0229,0.0234,0.024,0.0246,0.0251,0.0259,0.0251,0.0263,0.0264,0.0264,0.0269,0.0258,0.0258,0.0254,0.0254,0.0254,0,0,0.0158,0.0167,0.0173,0.0186,0.0193,0.0204,0.0202,0.0211,0.0222,0.0221,0.0239,0.0239,0.0242,0.0252,0.0257,0.0255,0.026,0.0264,0.0265,0.027,0.0258,0.0258,0.0258,0.0254,0.0254,0.0254,0,0,0.0164,0.0171,0.0183,0.0191,0.0203,0.0209,0.0212,0.0223,0.023,0.0242,0.0243,0.0246,0.0259,0.0261,0.0264,0.0271,0.0264,0.0271,0.0284,0.0272,0.0273,0.0273,0.0259,0.0258,0.0273,0.0273,0.0273,0,0.0162,0.0181,0.0186,0.02,0.0211,0.0212,0.0228,0.0233,0.0246,0.0255,0.0251,0.0263,0.0263,0.0274,0.0276,0.0274,0.0265,0.0281,0.0274,0.0274,0.0274,0.026,0.0258,0.0274,0.0274,0.0274,0.0274,0,0.0178,0.0194,0.0201,0.0222,0.0232,0.0245,0.0255,0.0264,0.027,0.0277,0.0288,0.0283,0.0292,0.0288,0.0286,0.0288,0.0281,0.0275,0.0273,0.0275,0.026,0.0258,0.0275,0.0275,0.0274,0.0274,0,0,0.0177,0.0207,0.0211,0.0229,0.0248,0.026,0.0276,0.0296,0.0313,0.0312,0.033,0.0326,0.0321,0.0323,0.0315,0.0302,0.029,0.0291,0.029,0.028,0.0264,0.0256,0.0253,0.0284,0.0284,0.0284,0.0251,0,0.019,0.0222,0.0234,0.0267,0.0285,0.0296,0.0314,0.033,0.0341,0.0356,0.0343,0.0356,0.0336,0.034,0.0324,0.0305,0.0287,0.0299,0.0261,0.0259,0.0255,0.0252,0.0283,0.025,0.025,0.0249,0.0249,0,0.0205,0.0227,0.0261,0.0299,0.0309,0.0328,0.0364,0.0382,0.0398,0.0405,0.0407,0.0399,0.0388,0.0364,0.0326,0.0337,0.0301,0.0276,0.0274,0.0263,0.0249,0.0247,0.0246,0.0246,0.0246,0.0247,0.0247,0,0.021,0.0248,0.0279,0.0292,0.033,0.035,0.0373,0.0399,0.0425,0.0439,0.0455,0.0435,0.0434,0.0387,0.0339,0.0333,0.029,0.0275,0.0231,0.023,0.024,0.024,0.0238,0.0238,0.0238,0.0238,0.0238,0,0.0222,0.0248,0.0286,0.0304,0.0347,0.0368,0.0415,0.0433,0.0464,0.0501,0.0483,0.0497,0.044,0.041,0.0351,0.0292,0.0299,0.0234,0.0223,0.0246,0.0247,0.0239,0.0239,0.0237,0.0237,0.0237,0.0237,0,0.0224,0.0247,0.0286,0.0332,0.0352,0.0384,0.0446,0.048,0.0506,0.055,0.0556,0.0548,0.0512,0.0449,0.0376,0.0319,0.0254,0.0227,0.0261,0.0251,0.0196,0.0198,0.0174,0.0174,0.0173,0.0173,0.0172,0,0.0227,0.0247,0.0306,0.0336,0.0361,0.0414,0.0454,0.0497,0.0536,0.0582,0.0601,0.0584,0.0567,0.0461,0.0388,0.0276,0.0253,0.0211,0.0196,0.0199,0.019,0.0193,0.0195,0.0172,0.0172,0.0172,0.0171,0,0.0234,0.0255,0.0289,0.035,0.0399,0.0455,0.0515,0.0544,0.0598,0.0621,0.0637,0.0589,0.0551,0.0464,0.0382,0.0298,0.0234,0.0205,0.0205,0.0191,0.0196,0.0188,0.0191,0.017,0.017,0.017,0.017,0,0.024,0.0262,0.0309,0.0364,0.0424,0.0482,0.0515,0.0564,0.0603,0.0649,0.0651,0.0611,0.0591,0.0476,0.04,0.0321,0.029,0.0243,0.024,0.0241,0.0267,0.0283,0.0276,0,0,0,0,0,0.0245,0.0273,0.0321,0.0383,0.0442,0.048,0.0551,0.0581,0.063,0.0642,0.0648,0.0611,0.0512,0.0472,0.0391,0.038,0.027,0.0279,0.0213,0.0162,0.0163,0.0181,0,0,0,0,0,0,0.025,0.0292,0.0317,0.0389,0.0432,0.0502,0.0548,0.0583,0.0591,0.0624,0.0574,0.0567,0.0472,0.0555,0.0381,0.0361,0.0301,0.0242,0.0239,0.0161,0.0162,0.0164,0.0183,0,0,0,0,0]}]]